OE3AJC-13 Weather Reports


time (UTC)temp
C
wind
direction
speed
KPH
gust
KPH
rain 1hr
cm
rain 24hr
cm
rain mn
cm
humidity
%
barometer
mb
20260504004305 10 226 0.0 0.0 0.00 0.00 0.00 62 1013.2
20260504003304 11 228 0.0 0.0 0.00 0.00 0.00 60 1013.3
20260504002303 11 220 0.0 0.0 0.00 0.00 0.00 60 1013.2
20260504001300 11 228 0.0 0.0 0.00 0.00 0.00 62 1013.1
20260504000258 10 241 0.0 1.6 0.00 0.00 0.00 62 1013.1
20260503233253 10 233 0.0 0.0 0.00 0.00 0.00 62 1013.3
20260503232252 11 238 1.6 3.2 0.00 0.00 0.00 60 1013.3
20260503231250 11 232 0.0 0.0 0.00 0.00 0.00 60 1013.3
20260503230249 11 225 0.0 0.0 0.00 0.00 0.00 61 1013.4
20260503225247 11 233 1.6 1.6 0.00 0.00 0.00 60 1013.3
20260503224246 11 223 0.0 0.0 0.00 0.00 0.00 59 1013.4
20260503223244 11 230 0.0 0.0 0.00 0.00 0.00 59 1013.4
20260503222243 12 229 0.0 0.0 0.00 0.00 0.00 58 1013.3
20260503221242 12 231 0.0 1.6 0.00 0.00 0.00 57 1013.5
20260503220240 12 227 0.0 0.0 0.00 0.00 0.00 57 1013.4
20260503215238 12 231 0.0 1.6 0.00 0.00 0.00 56 1013.4
20260503213234 13 230 0.0 0.0 0.00 0.00 0.00 55 1013.5
20260503212233 13 235 0.0 0.0 0.00 0.00 0.00 53 1013.7
20260503211231 13 229 0.0 0.0 0.00 0.00 0.00 52 1013.8
20260503210230 13 230 0.0 1.6 0.00 0.00 0.00 53 1013.7
20260503205229 13 233 3.2 3.2 0.00 0.00 0.00 53 1013.7
20260503204228 14 239 3.2 4.8 0.00 0.00 0.00 52 1013.8
20260503203226 14 232 0.0 1.6 0.00 0.00 0.00 52 1013.7
20260503201222 16 221 0.0 0.0 0.00 0.00 0.00 45 1013.9
20260503200220 17 203 1.6 3.2 0.00 0.00 0.00 44 1013.8
20260503191216 17 206 0.0 1.6 0.00 0.00 0.00 43 1013.8
20260503190213 17 170 1.6 3.2 0.00 0.00 0.00 43 1013.8
20260503185211 18 213 1.6 1.6 0.00 0.00 0.00 42 1013.7
20260503184209 18 222 0.0 0.0 0.00 0.00 0.00 42 1013.4
20260503183206 18 221 0.0 0.0 0.00 0.00 0.00 42 1013.7
20260503182204 18 212 0.0 1.6 0.00 0.00 0.00 41 1013.7
20260503181203 19 225 0.0 0.0 0.00 0.00 0.00 40 1013.5
20260503175159 20 239 0.0 1.6 0.00 0.00 0.00 39 1013.5
20260503174156 20 220 1.6 1.6 0.00 0.00 0.00 38 1013.7
20260503173154 21 173 6.4 9.7 0.00 0.00 0.00 37 1013.7
20260503171150 22 100 8.0 8.0 0.00 0.00 0.00 35 1013.7
20260503170147 22 209 3.2 3.2 0.00 0.00 0.00 35 1013.5
20260503081007 18 146 3.2 4.8 0.00 0.00 0.00 45 1018.1
20260503072931 15 202 1.6 3.2 0.00 0.00 0.00 50 1018.0
20260503071921 15 202 1.6 3.2 0.00 0.00 0.00 50 1018.0
20260503054751 10 240 0.0 0.0 0.00 0.00 0.00 62 1017.6
20260503053747 8 234 0.0 0.0 0.00 0.00 0.00 64 1017.6
20260503052740 5 237 0.0 3.2 0.00 0.00 0.00 74 1017.5
20260503051726 5 237 0.0 3.2 0.00 0.00 0.00 74 1017.5
20260503050725 4 233 0.0 0.0 0.00 0.00 0.00 80 1017.6
20260503045725 2 230 3.2 3.2 0.00 0.00 0.00 81 1017.5
20260503044724 1 233 1.6 1.6 0.00 0.00 0.00 83 1017.7
20260503043724 1 218 0.0 0.0 0.00 0.00 0.00 83 1017.8
20260503042723 0 231 0.0 0.0 0.00 0.00 0.00 83 1017.4
20260503041723 0 231 0.0 0.0 0.00 0.00 0.00 83 1017.3
20260503040722 0 232 0.0 0.0 0.00 0.00 0.00 83 1017.4
20260503035722 0 235 0.0 1.6 0.00 0.00 0.00 82 1017.5
20260503034721 0 230 0.0 0.0 0.00 0.00 0.00 83 1017.6
20260503033721 0 231 0.0 0.0 0.00 0.00 0.00 83 1017.4
20260503032720 0 232 0.0 0.0 0.00 0.00 0.00 82 1017.6
20260503031720 1 231 0.0 0.0 0.00 0.00 0.00 82 1017.6
20260503030719 0 232 0.0 0.0 0.00 0.00 0.00 82 1017.5
20260503025719 1 231 0.0 0.0 0.00 0.00 0.00 82 1017.5
20260503024718 1 232 0.0 0.0 0.00 0.00 0.00 82 1017.6
20260503023718 0 232 0.0 0.0 0.00 0.00 0.00 81 1017.7
20260503022717 1 232 0.0 0.0 0.00 0.00 0.00 81 1017.6
20260503021717 1 232 0.0 0.0 0.00 0.00 0.00 81 1017.6
20260503020716 1 232 0.0 0.0 0.00 0.00 0.00 80 1018.0
20260503015716 1 232 0.0 0.0 0.00 0.00 0.00 80 1017.8
20260503014715 2 230 0.0 0.0 0.00 0.00 0.00 80 1017.7
20260503013715 1 230 0.0 0.0 0.00 0.00 0.00 80 1018.0
20260503012714 2 231 0.0 0.0 0.00 0.00 0.00 80 1018.0
20260503011714 2 231 0.0 0.0 0.00 0.00 0.00 80 1018.0
20260503010713 1 230 0.0 0.0 0.00 0.00 0.00 79 1018.0
20260503005713 2 231 0.0 0.0 0.00 0.00 0.00 78 1017.8